CSG-2

Last updated on Fri Oct 04 2024 00:02:26 GMT+0000 (Coordinated Universal Time)

1 51444U 22008A 24277.51560085 .00002429 00000+0 31174-3 0 9997 2 51444 97.8892 99.0902 0001541 83.1071 277.0317 14.82139053144500
UTC large
Height (km)
Speed (km/s)
/
Latitude / Longitude
Inclination (degrees)
Orbital Period (minutes)
Azimuth
Elevation
Range (km)
Doppler Factor

Next 0 passes for location: London (51.5072 / 0.1276)

Sorry there are no passes over London.